• In Hungary
  • List of Countries
  • For 7 days
  • Water Temperature
  • Satellite Maps
  • Weather Map
  • News
  • Weather Widgets
  • user-avatar
    Login

    Hourly Weather Wladikavkaz

    Today, 18 January, Thursday

    Time Temperature Precipitation Wind Pressure Humidity
    00:00 -2°C° 0 mm 1 mps 699 mmHg 81%
    01:00 -2°C° 0 mm 1 mps 699 mmHg 81%
    02:00 -2°C° 0 mm 1 mps 699 mmHg 80%
    03:00 -2°C° 0 mm 1 mps 698 mmHg 82%
    04:00 -2°C° 0 mm 1 mps 698 mmHg 82%
    05:00 -2°C° 0 mm 1 mps 698 mmHg 82%
    06:00 -1°C° 0 mm 1 mps 698 mmHg 81%
    07:00 -1°C° 0 mm 1 mps 698 mmHg 82%
    08:00 0°C° 0 mm 1 mps 698 mmHg 82%
    09:00 -1°C° 0 mm 2 mps 697 mmHg 82%
    10:00 +1°C° 0 mm 2 mps 697 mmHg 83%
    11:00 +2°C° 0 mm 2 mps 696 mmHg 84%
    12:00 +2°C° 0 mm 2 mps 696 mmHg 86%
    13:00 +2°C° 0 mm 2 mps 695 mmHg 86%
    14:00 +2°C° 0 mm 2 mps 695 mmHg 87%
    15:00 +3°C° 0 mm 1 mps 695 mmHg 87%
    16:00 +3°C° 0.1 mm 1 mps 695 mmHg 87%
    17:00 +2°C° 0.1 mm 1 mps 695 mmHg 87%
    18:00 +2°C° 0.1 mm 1 mps 694 mmHg 87%
    19:00 +1°C° 0.2 mm 2 mps 694 mmHg 87%
    20:00 +1°C° 0.2 mm 2 mps 694 mmHg 87%
    21:00 +1°C° 0.2 mm 2 mps 694 mmHg 87%
    22:00 +1°C° 0.2 mm 2 mps 693 mmHg 87%
    23:00 +2°C° 0.2 mm 1 mps 693 mmHg 87%

    Tomorrow, 19 January, Friday

    Time Temperature Precipitation Wind Pressure Humidity
    00:00 +2°C° 0.2 mm 1 mps 693 mmHg 87%
    01:00 +2°C° 0.3 mm 1 mps 693 mmHg 87%
    02:00 +2°C° 0.3 mm 1 mps 693 mmHg 88%
    03:00 +2°C° 0.3 mm 1 mps 693 mmHg 88%
    04:00 +2°C° 0.2 mm 1 mps 694 mmHg 87%
    05:00 +2°C° 0.2 mm 1 mps 694 mmHg 87%
    06:00 +2°C° 0.2 mm 1 mps 694 mmHg 86%
    07:00 +3°C° 0 mm 1 mps 695 mmHg 86%
    08:00 +3°C° 0 mm 1 mps 695 mmHg 86%
    09:00 +3°C° 0 mm 1 mps 696 mmHg 86%
    10:00 +4°C° 0 mm 1 mps 696 mmHg 88%
    11:00 +5°C° 0 mm 1 mps 696 mmHg 89%
    12:00 +4°C° 0 mm 2 mps 696 mmHg 91%
    13:00 +4°C° 0 mm 2 mps 697 mmHg 91%
    14:00 +4°C° 0 mm 2 mps 697 mmHg 92%
    15:00 +5°C° 0 mm 1 mps 697 mmHg 92%
    16:00 +4°C° 0 mm 1 mps 698 mmHg 90%
    17:00 +3°C° 0 mm 1 mps 699 mmHg 88%
    18:00 +3°C° 0 mm 1 mps 699 mmHg 87%
    19:00 +2°C° 0 mm 1 mps 700 mmHg 86%
    20:00 +2°C° 0 mm 1 mps 700 mmHg 85%
    21:00 +2°C° 0 mm 1 mps 700 mmHg 85%
    22:00 +2°C° 0 mm 1 mps 701 mmHg 84%
    23:00 +2°C° 0 mm 1 mps 701 mmHg 83%

    Day after tomorrow, 20 January, Saturday

    Time Temperature Precipitation Wind Pressure Humidity
    00:00 +1°C° 0 mm 2 mps 701 mmHg 82%
    01:00 +1°C° 0 mm 2 mps 702 mmHg 81%
    02:00 +1°C° 0 mm 2 mps 702 mmHg 81%
    03:00 +1°C° 0 mm 2 mps 703 mmHg 81%
    04:00 +1°C° 0.2 mm 2 mps 703 mmHg 80%
    05:00 +1°C° 0.2 mm 2 mps 703 mmHg 79%
    06:00 +1°C° 0.2 mm 2 mps 703 mmHg 78%
    07:00 +3°C° 0.2 mm 1 mps 704 mmHg 80%
    08:00 +3°C° 0.2 mm 1 mps 704 mmHg 82%
    09:00 +4°C° 0.2 mm 1 mps 705 mmHg 84%
    10:00 +5°C° 0 mm 1 mps 705 mmHg 85%
    11:00 +5°C° 0 mm 1 mps 705 mmHg 86%
    12:00 +6°C° 0 mm 1 mps 705 mmHg 87%
    13:00 +6°C° 0 mm 1 mps 704 mmHg 88%
    14:00 +6°C° 0 mm 1 mps 704 mmHg 90%
    15:00 +6°C° 0 mm 1 mps 704 mmHg 91%
    16:00 +5°C° 0 mm 1 mps 704 mmHg 89%
    17:00 +4°C° 0 mm 1 mps 704 mmHg 87%
    18:00 +3°C° 0 mm 1 mps 704 mmHg 85%
    19:00 +2°C° 0 mm 2 mps 704 mmHg 83%
    20:00 +2°C° 0 mm 2 mps 704 mmHg 82%
    21:00 +1°C° 0 mm 2 mps 704 mmHg 80%
    22:00 +1°C° 0 mm 2 mps 704 mmHg 78%
    23:00 +1°C° 0 mm 2 mps 704 mmHg 76%

    21 January, Sunday

    Time Temperature Precipitation Wind Pressure Humidity
    00:00 +1°C° 0 mm 2 mps 704 mmHg 73%
    01:00 +1°C° 0 mm 2 mps 704 mmHg 73%
    02:00 +1°C° 0 mm 2 mps 704 mmHg 73%
    03:00 +1°C° 0 mm 2 mps 704 mmHg 73%
    04:00 +2°C° 0 mm 2 mps 704 mmHg 72%
    05:00 +2°C° 0 mm 2 mps 704 mmHg 71%
    06:00 +2°C° 0 mm 2 mps 704 mmHg 70%
    07:00 +2°C° 0 mm 2 mps 704 mmHg 70%
    08:00 +3°C° 0 mm 2 mps 704 mmHg 69%
    09:00 +3°C° 0 mm 2 mps 704 mmHg 69%
    10:00 +4°C° 0 mm 2 mps 704 mmHg 72%
    11:00 +6°C° 0 mm 1 mps 704 mmHg 75%
    12:00 +7°C° 0 mm 1 mps 703 mmHg 79%
    13:00 +7°C° 0 mm 1 mps 703 mmHg 80%
    14:00 +7°C° 0 mm 1 mps 703 mmHg 82%
    15:00 +7°C° 0 mm 1 mps 703 mmHg 84%
    16:00 +6°C° 0 mm 1 mps 703 mmHg 78%
    17:00 +5°C° 0 mm 1 mps 704 mmHg 73%
    18:00 +3°C° 0 mm 2 mps 704 mmHg 68%
    19:00 +2°C° 0 mm 2 mps 704 mmHg 66%
    20:00 +3°C° 0 mm 1 mps 705 mmHg 65%
    21:00 +3°C° 0 mm 1 mps 705 mmHg 64%
    22:00 +3°C° 0 mm 1 mps 704 mmHg 64%
    23:00 +3°C° 0 mm 1 mps 704 mmHg 64%

    22 January, Monday

    Time Temperature Precipitation Wind Pressure Humidity
    00:00 +2°C° 0 mm 1 mps 704 mmHg 63%
    01:00 +2°C° 0 mm 1 mps 703 mmHg 63%
    02:00 +2°C° 0 mm 1 mps 703 mmHg 63%
    03:00 +2°C° 0 mm 1 mps 702 mmHg 63%
    04:00 +2°C° 0 mm 1 mps 702 mmHg 64%
    05:00 +1°C° 0 mm 2 mps 701 mmHg 65%
    06:00 +1°C° 0 mm 2 mps 701 mmHg 66%
    07:00 +2°C° 0 mm 2 mps 701 mmHg 67%
    08:00 +2°C° 0 mm 2 mps 701 mmHg 69%
    09:00 +3°C° 0 mm 2 mps 700 mmHg 71%
    10:00 +5°C° 0 mm 1 mps 700 mmHg 72%
    11:00 +6°C° 0 mm 1 mps 699 mmHg 73%
    12:00 +6°C° 0 mm 1 mps 699 mmHg 74%
    13:00 +6°C° 0 mm 1 mps 698 mmHg 76%
    14:00 +6°C° 0 mm 1 mps 698 mmHg 77%
    15:00 +6°C° 0 mm 1 mps 697 mmHg 78%
    16:00 +5°C° 0 mm 1 mps 698 mmHg 76%
    17:00 +3°C° 0 mm 1 mps 698 mmHg 74%
    18:00 +1°C° 0 mm 2 mps 698 mmHg 72%
    19:00 +1°C° 0 mm 2 mps 698 mmHg 71%
    20:00 +1°C° 0 mm 2 mps 698 mmHg 70%
    21:00 +2°C° 0 mm 2 mps 698 mmHg 70%
    22:00 +1°C° 0 mm 2 mps 698 mmHg 70%
    23:00 +1°C° 0 mm 2 mps 698 mmHg 71%

    23 January, Tuesday

    Time Temperature Precipitation Wind Pressure Humidity
    00:00 +1°C° 0 mm 2 mps 698 mmHg 71%
    01:00 +1°C° 0 mm 2 mps 699 mmHg 71%
    02:00 +1°C° 0 mm 2 mps 699 mmHg 71%
    03:00 +1°C° 0 mm 2 mps 699 mmHg 70%
    04:00 +1°C° 0 mm 2 mps 699 mmHg 70%
    05:00 +1°C° 0 mm 2 mps 699 mmHg 69%
    06:00 +1°C° 0 mm 2 mps 699 mmHg 69%
    07:00 +2°C° 0 mm 1 mps 699 mmHg 69%
    08:00 +3°C° 0 mm 1 mps 699 mmHg 69%
    09:00 +4°C° 0 mm 1 mps 699 mmHg 69%
    10:00 +5°C° 0 mm 1 mps 699 mmHg 70%
    11:00 +6°C° 0 mm 1 mps 699 mmHg 70%
    12:00 +7°C° 0 mm 1 mps 698 mmHg 71%
    13:00 +7°C° 0 mm 1 mps 698 mmHg 74%
    14:00 +7°C° 0 mm 1 mps 698 mmHg 77%
    15:00 +7°C° 0 mm 1 mps 698 mmHg 80%
    16:00 +5°C° 0 mm 1 mps 698 mmHg 79%
    17:00 +4°C° 0 mm 1 mps 699 mmHg 78%
    18:00 +3°C° 0 mm 1 mps 699 mmHg 77%
    19:00 +3°C° 0 mm 1 mps 699 mmHg 76%
    20:00 +3°C° 0 mm 1 mps 699 mmHg 74%
    21:00 +3°C° 0 mm 1 mps 699 mmHg 72%
    22:00 +3°C° 0 mm 1 mps 699 mmHg 73%
    23:00 +3°C° 0 mm 1 mps 699 mmHg 73%
    Show more